Location: Eckley
(40.9930°N, 75.8630°W)
Time: 16:23:01
(UTC-04:00)

Daily predictions for brighter satellites

Satellite Brightness Start Highest point End
(mag) Time Altitude Azimuth Time Altitude Azimuth Time Altitude Azimuth
Cosmos 44 3.6 20:19:09 10° NNW 20:23:22 44° NE 20:27:44 10° SE
Cosmos 2322 Rocket 3.2 20:19:57 10° SSE 20:24:31 25° ESE 20:29:05 10° NE
Cosmos 2263 Rocket 3.7 20:21:04 10° N 20:25:18 21° NE 20:29:29 10° E
Cosmos 1939 Rocket 4.0 20:22:43 10° SE 20:26:04 26° ENE 20:29:21 10° NNE
Cosmos 921 Rocket 2.9 20:23:38 10° S 20:27:47 73° ESE 20:31:59 10° NNE
ATLAS 3B R/B 4.4 20:25:35 10° NNW 20:30:10 18° NNE 20:34:37 10° ENE
Okean 1 3.4 20:26:21 10° N 20:30:16 58° E 20:34:12 10° SSE
Envisat 3.3 20:27:09 10° SE 20:32:02 50° ENE 20:36:57 10° N
Meteor 1-20 Rocket 4.2 20:28:27 10° S 20:34:01 89° W 20:39:33 10° N
SL-16 R/B 2.9 20:29:30 10° SSE 20:34:22 30° ESE 20:39:15 10° NE
Cosmos 1536 4.4 20:31:50 10° SE 20:34:36 18° E 20:37:22 10° NE
Cosmos 1441 Rocket 3.4 20:31:16 10° NNW 20:35:01 71° W 20:38:43 10° S
Lacrosse 5 rocket 1.3 20:32:53 10° NW 20:36:31 56° NE 20:40:08 11° ESE
Tiangong 1 1.3 20:33:47 10° W 20:36:32 56° N 20:39:15 10° ENE
Cosmos 2151 Rocket 4.1 20:33:15 10° SSE 20:37:18 38° E 20:41:23 10° NNE
Helios 1B rocket 3.8 20:35:07 10° NE 20:38:03 19° E 20:40:59 10° SE
Cosmos 1975 Rocket 3.3 20:33:41 10° N 20:38:10 78° W 20:42:35 10° S
USA 267 4.3 20:32:53 10° SSE 20:39:01 42° SW 20:45:12 10° WNW
Cosmos 405 Rocket 4.3 20:36:32 10° NNW 20:40:06 38° W 20:43:43 10° SSW
Cosmos 2056 Rocket 4.5 20:35:12 10° SW 20:40:11 52° WNW 20:45:18 10° N
CZ-4C R/B 3.9 20:35:06 10° NW 20:42:06 48° WSW 20:49:41 10° S
Cosmos 2026 Rocket 4.2 20:40:28 10° S 20:46:47 85° W 20:53:14 10° N
EXPRESS MD2 2.5 20:46:06 10° SW 20:48:33 76° SE 20:52:37 10° ENE
Cosmos 1428 Rocket 4.5 20:43:04 10° S 20:49:18 72° E 20:55:32 10° NNE
SWAS 4.4 20:47:08 10° NNW 20:51:26 89° WSW 20:55:42 10° SSE
Cosmos 1655 Rocket 4.0 20:45:28 10° S 20:51:43 81° E 20:58:04 10° N
GPS 2-05 Rocket1 3.7 20:48:56 10° WSW 20:51:56 30° S 20:53:52 17° ESE
Cosmos 1633 3.2 20:54:20 10° SSW 20:57:53 58° W 21:01:29 10° N
Cosmos 2360 Rocket 3.5 20:56:27 13° SE 20:59:22 19° E 21:03:13 10° ENE
Cosmos 1980 Rocket 3.0 20:54:36 10° SW 21:00:06 56° WNW 21:05:38 10° NNE
YAOGAN 6 3.0 20:57:35 15° SE 21:00:11 42° ENE 21:03:33 10° N
Cosmos 839 Rocket 4.0 20:54:10 10° SSW 21:00:29 88° ESE 21:06:46 10° NNE
Abrixas rocket 4.3 20:58:34 10° WNW 21:01:23 26° NNW 21:04:13 10° NE
Meteor 1-13 Rocket 4.3 20:56:19 10° N 21:02:17 70° E 21:08:11 10° SSE
Cosmos 1536 Rocket 3.6 20:58:08 10° N 21:02:24 57° E 21:06:15 12° SSE
ATLAS 2AS CENTAUR R/B 3.4 20:55:40 10° S 21:02:30 38° ESE 21:09:42 10° NE
BREEZE M DEB (TANK) 4.2 20:53:39 10° SSW 21:02:58 30° SSE 21:05:34 17° E
SJ-11-01 4.3 20:58:30 10° SSE 21:03:08 68° ENE 21:07:47 10° N
Cosmos 1452 Rocket 3.7 20:58:45 10° SSW 21:04:02 80° WNW 21:09:22 10° NNE
USA 186 3.0 21:02:36 10° S 21:05:48 44° W 21:09:03 10° NNW
Cosmos 1850 Rocket 4.4 21:01:53 10° N 21:07:04 49° ENE 21:10:45 19° SE
Cosmos 1420 Rocket 3.9 21:03:08 10° SSW 21:08:18 78° ESE 21:13:30 10° NNE
NOSS 3-1 (A) 4.4 21:03:50 10° WSW 21:09:26 50° NW 21:15:48 10° NNE
Meteor 2-4 Rocket 3.8 21:04:05 10° N 21:09:32 56° ENE 21:14:13 15° SSE
NOSS 2-3 (E) 4.0 21:08:48 10° SSW 21:13:15 49° ESE 21:18:21 10° NE
Atlas Centaur 2 3.5 21:07:25 10° WSW 21:14:36 36° S 21:18:36 20° SE
Helios 1A 3.0 21:11:48 17° SSE 21:14:53 62° ENE 21:19:07 10° N
Cosmos 44 Rocket 3.8 21:12:34 10° NW 21:17:12 54° WSW 21:21:13 14° SSE
Spot 1 4.5 21:21:42 19° SSE 21:25:27 70° ENE 21:30:32 10° N
BREEZE-M DEB (TANK) 2.6 21:28:35 10° WSW 21:31:35 39° NNW 21:32:42 20° NNE
DELTA 2 R/B (1) 4.2 21:29:34 10° W 21:34:52 44° SSW 21:37:20 28° SSE
SeaSat 1 3.6 21:31:49 10° NNE 21:36:30 45° WNW 21:41:09 10° SW
Meteor 1-11 Rocket 4.1 21:34:04 10° SSW 21:39:53 67° W 21:45:38 10° N
NOSS 2-3 (C) 3.8 21:42:10 10° SW 21:46:50 86° NW 21:52:17 10° NE
SPOT 5 3.4 21:46:37 36° ESE 21:47:46 42° ENE 21:52:14 10° N
MetOp-A 4.1 21:46:00 33° SSE 21:48:25 70° ENE 21:53:46 10° N
SAR-Lupe-4 3.5 21:52:24 60° S 21:53:01 84° WSW 21:56:38 10° NNW
Lacrosse 5 1.8 21:49:29 10° SSW 21:54:30 63° SE 21:59:31 10° NE
Meteor 1-29 3.6 21:55:55 10° N 21:59:17 53° WNW 22:00:43 29° SW
USA 238 DEB 4.3 21:52:40 10° NNW 21:59:27 46° NE 22:02:25 31° E
USA 238 4.3 21:52:47 10° NNW 21:59:33 45° NE 22:02:31 30° E
Cosmos 2315 Rocket 3.9 21:54:28 10° N 22:00:44 81° E 22:03:43 34° SSE
Okean 1 Rocket 3.3 21:58:31 21° SSW 22:01:21 65° W 22:05:42 10° N
H-2A R/B 2.3 22:00:55 43° ESE 22:01:48 48° ENE 22:06:37 10° N
Okean 1-7 Rocket 3.5 21:59:22 10° N 22:03:52 82° E 22:04:42 59° SSE
Cosmos 2266 Rocket 4.4 21:58:12 10° SSW 22:04:10 61° W 22:10:08 10° N
YAOGAN 11 4.2 22:05:01 52° E 22:05:11 53° ENE 22:09:25 10° N
Cosmos 2278 Rocket 4.3 22:03:37 10° NNE 22:06:04 13° NE 22:07:46 11° ENE
ARGOS 3.0 22:04:28 44° SSE 22:06:13 81° ENE 22:11:36 10° NNW
Cosmos 2237 4.5 22:06:23 44° ESE 22:06:23 44° ESE 22:11:43 10° NE
Cosmos 1607 4.0 21:59:56 10° NNW 22:06:27 90° ENE 22:08:50 42° SSE
Meteor 1-23 Rocket 4.5 22:02:06 10° NNW 22:07:37 64° W 22:10:35 28° SSW
Cosmos 2322 Rocket 3.3 22:02:47 10° SW 22:08:14 46° WNW 22:13:43 10° NNE
ERS-1 Rocket 3.2 22:06:15 35° S 22:08:20 68° WSW 22:13:21 10° NNW
Nadezhda 2 Rocket 4.4 22:05:18 25° S 22:09:06 87° E 22:15:22 10° N
Cosmos 2263 Rocket 2.4 22:04:04 10° NNW 22:09:43 64° WSW 22:11:56 37° S
SAR-Lupe-1 4.4 22:09:58 59° WSW 22:10:05 59° WSW 22:13:38 10° NNW
Tiangong 1 3.1 22:09:18 10° WNW 22:10:33 24° WNW 22:10:33 24° WNW
Helios 1B rocket 4.1 22:09:43 10° N 22:13:26 33° WNW 22:17:07 10° SW
Lacrosse 5 rocket 3.5 22:13:07 10° W 22:15:21 15° WSW 22:15:50 15° SW
Cosmos 1844 Rocket 3.5 22:12:57 10° N 22:18:06 34° ENE 22:18:48 33° ENE
SL-16 R/B 3.6 22:13:03 10° SW 22:18:18 38° WNW 22:23:36 10° N
Cosmos 1025 Rocket 3.3 22:14:34 10° NNW 22:18:48 63° W 22:19:22 56° SW
ATLAS 3B R/B 2.6 22:15:29 10° NNW 22:22:13 67° NE 22:23:52 50° ESE
Cosmos 1515 4.1 22:19:39 10° N 22:22:57 62° NW 22:22:57 62° NW
Cosmos 220 Rocket 4.4 22:20:48 10° NNW 22:24:59 53° WSW 22:25:17 52° WSW
Cosmos 2322 3.5 22:24:05 40° SSW 22:26:15 85° ESE 22:31:57 10° NNE
USA 245 4.1 22:27:22 53° SSW 22:28:28 69° WSW 22:33:06 10° NNW
BREEZE-M DEB 3.9 22:21:40 10° WNW 22:28:39 40° N 22:29:11 37° NNE
Landsat 7 4.1 22:29:53 55° NE 22:29:53 55° NE 22:34:12 10° N
Cosmos 2219 Rocket 3.9 22:32:43 19° ENE 22:32:43 19° ENE 22:34:43 10° NE
Cosmos 1745 Rocket 4.1 22:30:57 52° E 22:31:02 52° E 22:36:57 10° NNE
Cosmos 1486 Rocket 4.2 22:26:41 10° N 22:31:49 56° ENE 22:31:49 56° ENE
H-2A R/B 4.0 22:33:11 19° NE 22:33:11 19° NE 22:35:19 10° NNE
Cosmos 1302 Rocket 4.1 22:32:54 59° ENE 22:32:54 59° ENE 22:37:30 10° NNE
Nimbus 7 Rocket 4.2 22:26:29 10° NNE 22:32:21 72° ESE 22:33:07 64° SSE
COSMOS 2428 3.2 22:35:04 46° ENE 22:35:04 46° ENE 22:39:29 10° NNE
Cosmos 1500 4.2 22:40:18 45° NNW 22:40:18 45° NNW 22:43:17 10° N
Cosmos 2360 Rocket 2.7 22:37:59 14° SW 22:42:50 59° WNW 22:48:24 10° NNE
DMSP B5D2-2 4.0 22:39:34 10° NNE 22:44:26 72° NE 22:44:26 72° NE
Terra 2.4 22:45:43 48° NNE 22:45:43 48° NNE 22:49:32 10° N
Cosmos 1844 4.3 22:41:21 10° NNW 22:46:42 44° ENE 22:46:42 44° ENE
Cosmos 2333 Rocket 3.9 22:50:50 20° NE 22:50:50 20° NE 22:52:48 10° NE
ATLAS 2AS CENTAUR R/B 3.7 22:45:41 10° SW 22:53:16 55° NW 23:01:15 10° NNE
Cosmos 1892 Rocket 4.3 22:50:56 10° NNW 22:54:33 50° NW 22:54:33 50° NW
Cosmos 2333 4.5 22:58:32 57° NE 22:58:32 57° NE 23:03:01 10° NNE
SL-8 R/B 4.3 22:53:59 10° WNW 22:58:02 53° NNW 22:58:02 53° NNW
Cosmos 1386 Rocket 4.4 23:02:01 70° ENE 23:02:01 70° ENE 23:07:53 10° NNE
SPOT 1/Viking Rocket 4.1 23:02:52 49° WSW 23:03:00 49° W 23:08:04 10° NNW
Atlas Centaur 2 4.1 22:57:30 10° WSW 23:01:14 22° SW 23:01:14 22° SW
Cosmos 1241 Rocket 4.4 23:06:15 82° SSW 23:06:33 89° SE 23:13:05 10° NNE
Cosmos 2237 Rocket 4.1 23:15:20 19° NE 23:15:20 19° NE 23:17:03 10° NE
CENTAUR R/B 4.3 23:07:31 10° NNW 23:14:12 30° NE 23:17:29 23° ENE
Nadezhda 1 Rocket 4.1 23:17:14 10° NNW 23:23:29 71° W 23:23:29 71° W
Cosmos 2181 Rocket 4.4 23:27:08 10° N 23:32:35 55° NE 23:32:35 55° NE
Lacrosse 5 3.7 23:33:24 10° W 23:37:48 29° NNW 23:42:12 10° NNE
Cosmos 1709 Rocket 4.3 23:40:17 61° NNE 23:40:17 61° NNE 23:45:21 10° N
H-2A R/B 4.0 23:41:34 19° W 23:41:34 19° W 23:45:01 10° NW
NOSS 3-2 (A) 3.9 23:42:58 10° NW 23:50:24 76° WSW 23:50:24 76° WSW
Cosmos 2278 Rocket 3.0 23:45:29 10° NNW 23:49:36 48° N 23:49:36 48° N
